Flag for USA

Past Weather in Plattsburgh, New York, USA — Yesterday and Last 2 Weeks

Now
66 °F

Clear.


Feels Like: 66 °F
Forecast: 63 / 39 °F
Wind: 18 mph from South

Location: Plattsburgh International Airport
Current Time: Oct 24, 2020 at 12:12:07 am
Latest Report: Oct 23, 2020 at 10:53 pm
Visibility: 10 mi
Pressure29.83 "Hg
Humidity: 73%
Dew Point: 57 °F
Location of PlattsburghLocation

Past Weather in Plattsburgh — Graph

°F

Plattsburgh Temperature Yesterday

Maximum temperature yesterday: 74 °F (at 1:28 pm)
Minimum temperature yesterday: 45 °F (at 6:00 am)
Average temperature yesterday: 60 °F

High & Low Weather Summary for the Past Weeks

 TemperatureHumidityPressure
High75 °F (Oct 15, 2:53 pm)100% (Oct 14, 1:16 am)30.45 "Hg (Oct 14, 1:16 am)
Low28 °F (Oct 12, 6:53 am)32% (Oct 9, 2:53 pm)29.58 "Hg (Oct 10, 4:53 pm)
Average51 °F77%30.10 "Hg
* Reported Oct 8 10:53 pm — Oct 23 10:53 pm, Plattsburgh. Weather by CustomWeather, © 2020

Note: Actual official high and low records may vary slightly from our data, if they occured in-between our weather recording intervals... More about our weather records

Plattsburgh Weather History for the Previous 24 Hours

Scroll right to see more
 ConditionsComfort  
Time TempWeatherWind HumidityBarometerVisibility
10:53 pm
Fri, Oct 23
66 °FClear.18 mph73%29.83 "Hg10 mi
9:53 pm66 °FClear.18 mph73%29.85 "Hg10 mi
8:53 pm67 °FClear.15 mph71%29.88 "Hg10 mi
7:53 pm70 °FClear.15 mph66%29.88 "Hg10 mi
6:53 pm70 °FClear.10 mph66%29.89 "Hg10 mi
5:53 pm71 °FSunny.12 mph66%29.90 "Hg10 mi
4:53 pm72 °FSunny.15 mph64%29.92 "Hg10 mi
3:53 pm72 °FSunny.16 mph64%29.93 "Hg10 mi
2:53 pm72 °FSunny.18 mph64%29.96 "Hg10 mi
1:53 pm72 °FSunny.21 mph64%29.98 "Hg10 mi
1:28 pm74 °FSunny.16 mph60%29.99 "Hg10 mi
12:53 pm69 °FSunny.14 mph70%30.02 "Hg10 mi
11:53 am68 °FSunny.12 mph70%30.06 "Hg10 mi
10:53 am64 °FPassing clouds.9 mph75%30.09 "Hg10 mi
9:53 am55 °FPartly sunny.No wind87%30.11 "Hg10 mi
8:53 am50 °FOvercast.No wind93%30.13 "Hg10 mi
7:53 am47 °FOvercast.No wind97%30.12 "Hg10 mi
6:53 am45 °FFog.No wind97%30.12 "Hg5 mi
6:18 am46 °FClear.No wind96%30.11 "Hg10 mi
6:00 am45 °FFog.No wind100%30.11 "Hg2 mi
5:42 am46 °FFog.No wind96%30.11 "Hg2 mi
4:53 am47 °FClear.No wind97%30.12 "Hg9 mi
3:53 am49 °FClear.No wind93%30.13 "Hg10 mi
2:53 am51 °FMostly cloudy.No wind89%30.15 "Hg10 mi
1:53 am51 °FPassing clouds.No wind89%30.17 "Hg10 mi
12:53 am51 °FMostly cloudy.No wind92%30.19 "Hg10 mi
Weather by CustomWeather, © 2020

See weather overview